| time (UTC) | temp F | wind direction | speed MPH | gust MPH | rain 1hr in | rain 24hr in | rain mn in | humidity % | barometer mb |
| 20260506004518 | 77 | 211 | 11.0 | 20.0 | 0.00 | 0.00 | 0.00 | 12 | 1008.8 |
| 20260506003015 | 76 | 360 | 10.0 | 17.0 | 0.00 | 0.00 | 0.00 | 13 | 1008.7 |
| 20260506001514 | 77 | 360 | 10.0 | 21.0 | 0.00 | 0.00 | 0.00 | 14 | 1008.6 |
| 20260506000012 | 77 | 360 | 9.0 | 19.0 | 0.00 | 0.00 | 0.00 | 12 | 1008.5 |
| 20260505234512 | 78 | 360 | 9.0 | 19.0 | 0.00 | 0.00 | 0.00 | 12 | 1008.4 |
| 20260505233016 | 79 | 360 | 8.0 | 16.0 | 0.00 | 0.00 | 0.00 | 9 | 1008.4 |
| 20260505231507 | 78 | 360 | 4.0 | 10.0 | 0.00 | 0.00 | 0.00 | 11 | 1008.5 |
| 20260505230007 | 78 | 360 | 9.0 | 19.0 | 0.00 | 0.00 | 0.00 | 13 | 1008.6 |
| 20260505224511 | 79 | 360 | 7.0 | 20.0 | 0.00 | 0.00 | 0.00 | 12 | 1008.7 |
| 20260505223004 | 78 | 360 | 8.0 | 14.0 | 0.00 | 0.00 | 0.00 | 13 | 1008.8 |
| 20260505221501 | 77 | 188 | 7.0 | 13.0 | 0.00 | 0.00 | 0.00 | 14 | 1009.1 |
| 20260505220104 | 77 | 204 | 5.0 | 15.0 | 0.00 | 0.00 | 0.00 | 16 | 1009.4 |
| 20260505214700 | 77 | 202 | 5.0 | 17.0 | 0.00 | 0.00 | 0.00 | 16 | 1009.5 |
| 20260505213058 | 76 | 360 | 8.0 | 15.0 | 0.00 | 0.00 | 0.00 | 16 | 1009.6 |
| 20260505211604 | 75 | 360 | 4.0 | 18.0 | 0.00 | 0.00 | 0.00 | 17 | 1009.9 |
| 20260505210106 | 77 | 272 | 8.0 | 21.0 | 0.00 | 0.00 | 0.00 | 16 | 1010.0 |
| 20260505204603 | 75 | 360 | 7.0 | 22.0 | 0.00 | 0.00 | 0.00 | 17 | 1010.1 |
| 20260505203107 | 77 | 219 | 8.0 | 17.0 | 0.00 | 0.00 | 0.00 | 16 | 1010.0 |
| 20260505201555 | 77 | 360 | 6.0 | 15.0 | 0.00 | 0.00 | 0.00 | 16 | 1010.1 |
| 20260505200108 | 76 | 360 | 3.0 | 13.0 | 0.00 | 0.00 | 0.00 | 17 | 1010.2 |
| 20260505194554 | 77 | 360 | 6.0 | 14.0 | 0.00 | 0.00 | 0.00 | 16 | 1010.4 |
| 20260505193102 | 77 | 360 | 6.0 | 16.0 | 0.00 | 0.00 | 0.00 | 17 | 1010.4 |
| 20260505191653 | 77 | 360 | 9.0 | 19.0 | 0.00 | 0.00 | 0.00 | 17 | 1010.6 |
| 20260505190049 | 75 | 46 | 6.0 | 21.0 | 0.00 | 0.00 | 0.00 | 19 | 1010.7 |
| 20260505184549 | 76 | 188 | 7.0 | 20.0 | 0.00 | 0.00 | 0.00 | 20 | 1010.7 |
| 20260505183047 | 75 | 205 | 7.0 | 15.0 | 0.00 | 0.00 | 0.00 | 21 | 1010.9 |
| 20260505181554 | 74 | 147 | 6.0 | 18.0 | 0.00 | 0.00 | 0.00 | 21 | 1011.0 |
| 20260505180042 | 74 | 190 | 5.0 | 20.0 | 0.00 | 0.00 | 0.00 | 24 | 1011.1 |
| 20260505174541 | 74 | 186 | 6.0 | 13.0 | 0.00 | 0.00 | 0.00 | 25 | 1011.0 |
| 20260505173041 | 73 | 219 | 8.0 | 16.0 | 0.00 | 0.00 | 0.00 | 24 | 1010.9 |
| 20260505171538 | 73 | 211 | 3.0 | 11.0 | 0.00 | 0.00 | 0.00 | 24 | 1010.9 |
| 20260505170038 | 72 | 360 | 6.0 | 14.0 | 0.00 | 0.00 | 0.00 | 25 | 1010.9 |
| 20260505164536 | 72 | 360 | 2.0 | 12.0 | 0.00 | 0.00 | 0.00 | 24 | 1011.0 |
| 20260505163034 | 71 | 360 | 5.0 | 10.0 | 0.00 | 0.00 | 0.00 | 25 | 1011.0 |
| 20260505161541 | 69 | 360 | 4.0 | 11.0 | 0.00 | 0.00 | 0.00 | 26 | 1011.1 |
| 20260505153031 | 68 | 360 | 4.0 | 13.0 | 0.00 | 0.00 | 0.00 | 26 | 1011.0 |
| 20260505151530 | 67 | 360 | 4.0 | 12.0 | 0.00 | 0.00 | 0.00 | 28 | 1011.0 |
| 20260505124523 | 64 | 360 | 1.0 | 4.0 | 0.00 | 0.00 | 0.00 | 44 | 1009.8 |
| 20260505123022 | 64 | 360 | 3.0 | 8.0 | 0.00 | 0.00 | 0.00 | 43 | 1009.8 |
| 20260505121531 | 65 | 360 | 3.0 | 8.0 | 0.00 | 0.00 | 0.00 | 42 | 1009.6 |
| 20260505120019 | 65 | 360 | 1.0 | 6.0 | 0.00 | 0.00 | 0.00 | 42 | 1009.6 |
| 20260505114518 | 66 | 360 | 3.0 | 6.0 | 0.00 | 0.00 | 0.00 | 41 | 1009.4 |
| 20260505113016 | 66 | 360 | 3.0 | 6.0 | 0.00 | 0.00 | 0.00 | 40 | 1009.5 |
| 20260505111515 | 66 | 360 | 3.0 | 9.0 | 0.00 | 0.00 | 0.00 | 40 | 1009.4 |
| 20260505101510 | 67 | 360 | 3.0 | 10.0 | 0.00 | 0.00 | 0.00 | 38 | 1009.7 |
| 20260505100014 | 68 | 360 | 6.0 | 13.0 | 0.00 | 0.00 | 0.00 | 38 | 1009.8 |
| 20260505094502 | 68 | 360 | 5.0 | 13.0 | 0.00 | 0.00 | 0.00 | 36 | 1010.1 |
| 20260505093101 | 69 | 360 | 7.0 | 15.0 | 0.00 | 0.00 | 0.00 | 34 | 1010.1 |
| 20260505091605 | 69 | 360 | 6.0 | 13.0 | 0.00 | 0.00 | 0.00 | 33 | 1010.4 |
| 20260505084556 | 69 | 360 | 3.0 | 8.0 | 0.00 | 0.00 | 0.00 | 31 | 1010.5 |
| 20260505083100 | 69 | 360 | 2.0 | 8.0 | 0.00 | 0.00 | 0.00 | 30 | 1010.6 |
| 20260505081557 | 70 | 360 | 7.0 | 13.0 | 0.00 | 0.00 | 0.00 | 28 | 1010.9 |
| 20260505080050 | 70 | 360 | 2.0 | 11.0 | 0.00 | 0.00 | 0.00 | 26 | 1010.8 |
| 20260505074544 | 71 | 360 | 3.0 | 11.0 | 0.00 | 0.00 | 0.00 | 26 | 1011.0 |
| 20260505073045 | 71 | 360 | 4.0 | 10.0 | 0.00 | 0.00 | 0.00 | 26 | 1010.7 |
| 20260505071547 | 71 | 360 | 5.0 | 12.0 | 0.00 | 0.00 | 0.00 | 25 | 1010.5 |
| 20260505070037 | 72 | 360 | 5.0 | 12.0 | 0.00 | 0.00 | 0.00 | 26 | 1010.6 |
| 20260505064540 | 72 | 360 | 5.0 | 11.0 | 0.00 | 0.00 | 0.00 | 26 | 1010.6 |
| 20260505063039 | 72 | 360 | 3.0 | 8.0 | 0.00 | 0.00 | 0.00 | 26 | 1010.5 |
| 20260505061537 | 73 | 360 | 4.0 | 11.0 | 0.00 | 0.00 | 0.00 | 26 | 1010.4 |
| 20260505060038 | 73 | 360 | 3.0 | 8.0 | 0.00 | 0.00 | 0.00 | 27 | 1010.3 |
| 20260505054538 | 73 | 360 | 3.0 | 6.0 | 0.00 | 0.00 | 0.00 | 28 | 1010.3 |
| 20260505053036 | 73 | 360 | 2.0 | 6.0 | 0.00 | 0.00 | 0.00 | 29 | 1010.2 |
| 20260505051532 | 73 | 360 | 1.0 | 6.0 | 0.00 | 0.00 | 0.00 | 30 | 1010.5 |
| 20260505041530 | 73 | 360 | 2.0 | 5.0 | 0.00 | 0.00 | 0.00 | 28 | 1010.6 |
| 20260505040031 | 74 | 360 | 2.0 | 6.0 | 0.00 | 0.00 | 0.00 | 27 | 1010.8 |
| 20260505034529 | 74 | 360 | 3.0 | 6.0 | 0.00 | 0.00 | 0.00 | 26 | 1010.6 |
| 20260505033036 | 74 | 360 | 2.0 | 5.0 | 0.00 | 0.00 | 0.00 | 26 | 1010.1 |
| 20260505031530 | 74 | 360 | 2.0 | 6.0 | 0.00 | 0.00 | 0.00 | 25 | 1010.0 |
| 20260505030028 | 74 | 360 | 2.0 | 8.0 | 0.00 | 0.00 | 0.00 | 24 | 1009.8 |
| 20260505024543 | 74 | 360 | 2.0 | 8.0 | 0.00 | 0.00 | 0.00 | 24 | 1009.7 |
| 20260505023036 | 74 | 360 | 3.0 | 10.0 | 0.00 | 0.00 | 0.00 | 24 | 1009.7 |
| 20260505021526 | 75 | 360 | 4.0 | 10.0 | 0.00 | 0.00 | 0.00 | 25 | 1009.7 |
| 20260505020025 | 75 | 360 | 2.0 | 10.0 | 0.00 | 0.00 | 0.00 | 26 | 1009.5 |
| 20260505014534 | 76 | 360 | 3.0 | 9.0 | 0.00 | 0.00 | 0.00 | 26 | 1009.6 |
| 20260505013024 | 76 | 360 | 3.0 | 11.0 | 0.00 | 0.00 | 0.00 | 27 | 1009.4 |
| 20260505011524 | 76 | 360 | 2.0 | 8.0 | 0.00 | 0.00 | 0.00 | 27 | 1009.6 |
| 20260505010023 | 76 | 360 | 5.0 | 11.0 | 0.00 | 0.00 | 0.00 | 27 | 1009.6 |